Location: Saluda
(35.2377°N, 82.3468°W)
Time: 04:16:56
(UTC+00:00)

Vanguard 2 Rocket - Pass Details

Date: 06 October 2022
Orbit: 555 x 3321 km, 32.9° (Epoch: 04 December)

Event Time Altitude Azimuth Distance (km) Brightness Sun altitude
Rises 02:52:53 0° 240° (WSW) 7,258 11.7 -45.0°
Reaches altitude 10° 02:58:05 10° 237° (WSW) 6,097 11.2 -45.9°
Enters shadow 03:10:13 45° 220° (SW) 3,386 9.5 -47.9°
Maximum altitude 03:15:59 64° 162° (SSE) 2,563 - -48.8°
Drops below altitude 10° 03:26:47 10° 84° (E) 3,876 - -50.5°
Sets 03:29:20 0° 81° (E) 4,566 - -50.9°
